Location: WDG Pocking
(48.4011°N, 13.3247°E)
Time: 14:34:50
(UTC+01:00)

ISS - Visible Passes

Search period start: 25 March 2019 00:00
Search period end: 04 April 2019 01:00
Orbit: 408 x 411 km, 51.6° (Epoch: 25 March)

Date Brightness Start Highest point End Pass type
(mag) Time Alt. Az. Time Alt. Az. Time Alt. Az.
25 Mar -3.5 20:17:43 10° W 20:21:01 63° NNW 20:21:38 50° NE visible
26 Mar -3.8 19:27:03 10° WSW 19:30:21 84° NNW 19:33:15 13° ENE visible
26 Mar -1.9 21:03:58 10° WNW 21:06:02 31° NW 21:06:02 31° NW visible
27 Mar -3.0 20:13:13 10° W 20:16:27 48° N 20:17:33 33° NE visible
27 Mar -0.4 21:50:05 10° WNW 21:50:19 12° WNW 21:50:19 12° WNW visible
28 Mar -3.2 19:22:28 10° W 19:25:44 56° NNW 19:29:00 10° ENE visible
28 Mar -2.3 20:59:24 10° WNW 21:01:45 37° NW 21:01:45 37° NW visible
29 Mar -3.0 20:08:40 10° WNW 20:11:53 45° N 20:13:09 29° ENE visible
29 Mar -0.6 21:45:22 10° WNW 21:45:54 14° WNW 21:45:54 14° WNW visible
30 Mar -3.0 19:17:54 10° W 19:21:07 46° N 19:24:20 10° ENE visible
30 Mar -2.8 20:54:42 10° WNW 20:57:16 47° NW 20:57:16 47° NW visible
31 Mar -3.3 21:04:00 10° WNW 21:07:15 53° N 21:08:35 30° ENE visible
31 Mar -0.8 22:40:39 10° WNW 22:41:21 15° WNW 22:41:21 15° WNW visible
01 Apr -3.1 20:13:15 10° WNW 20:16:29 47° N 20:19:42 10° E visible
01 Apr -3.3 21:49:55 10° WNW 21:52:40 57° W 21:52:40 57° W visible
02 Apr -3.8 20:59:12 10° WNW 21:02:31 76° NNE 21:03:59 30° E visible
02 Apr -0.9 22:36:06 10° W 22:36:44 14° W 22:36:44 14° W visible
03 Apr -3.4 20:08:29 10° WNW 20:11:46 59° NNE 20:15:02 10° E visible
03 Apr -2.9 21:45:10 10° WNW 21:48:04 39° SW 21:48:04 39° SW visible
